Flag for USA

Past Weather in Mesa, Arizona, USA — Yesterday and Last 2 Weeks

Now
97 °F

Clear.


Feels Like: 95 °F
Forecast: 108 / 85 °F
Wind: No wind

Location: Mesa / Falcon Field

Current Time: Jul 8, 2020 at 11:11:27 pm

Latest Report: Jul 8, 2020 at 9:54 pm


Visibility: 10 mi

Pressure: 29.67 "Hg

Humidity: 24%

Dew Point: 54 °F

Location of MesaLocation

Past Weather in Mesa — Graph

°F

Mesa Temperature Yesterday

Maximum temperature yesterday: 108 °F (at 3:54 pm)
Minimum temperature yesterday: 81 °F (at 5:54 am)
Average temperature yesterday: 97 °F

High & Low Weather Summary for the Past Weeks

 TemperatureHumidityPressure
High109 °F (Jul 5, 4:54 pm)42% (Jul 3, 3:54 am)29.92 "Hg (Jul 3, 3:54 am)
Low76 °F (Jun 30, 4:54 am)4% (Jun 25, 2:54 pm)29.51 "Hg (Jun 28, 5:54 pm)
Average94 °F18%29.72 "Hg
* Reported Jun 23 9:54 pm — Jul 8 9:54 pm, Mesa. Weather by CustomWeather, © 2020

Note: Actual official high and low records may vary slightly from our data, if they occured in-between our weather recording intervals... More about our weather records

Mesa Weather History for the Previous 24 Hours

Scroll right to see more
 ConditionsComfort  
Time TempWeatherWind HumidityBarometerVisibility
9:54 pm
Wed, Jul 8
97 °FClear.No wind24%29.67 "Hg10 mi
8:54 pm102 °FClear.3 mph16%29.65 "Hg10 mi
7:54 pm104 °FClear.8 mph15%29.62 "Hg10 mi
6:54 pm106 °FSunny.12 mph14%29.62 "Hg10 mi
5:54 pm107 °FSunny.10 mph14%29.62 "Hg10 mi
4:54 pm108 °FSunny.12 mph14%29.63 "Hg10 mi
3:54 pm107 °FSunny.3 mph15%29.65 "Hg10 mi
2:54 pm107 °FSunny.N/A15%29.67 "Hg10 mi
1:54 pm105 °FSunny.5 mph17%29.70 "Hg10 mi
12:54 pm104 °FSunny.6 mph18%29.72 "Hg10 mi
11:54 am102 °FSunny.9 mph19%29.75 "Hg10 mi
10:54 am100 °FSunny.N/A21%29.76 "Hg10 mi
9:54 am99 °FSunny.7 mph22%29.76 "Hg10 mi
8:54 am97 °FSunny.3 mph24%29.76 "Hg10 mi
7:54 am94 °FSunny.9 mph27%29.75 "Hg10 mi
6:54 am89 °FSunny.8 mph29%29.75 "Hg10 mi
5:54 am87 °FSunny.7 mph27%29.74 "Hg10 mi
4:54 am90 °FClear.6 mph25%29.72 "Hg10 mi
3:54 am91 °FClear.No wind24%29.70 "Hg10 mi
2:54 am94 °FClear.6 mph21%29.69 "Hg10 mi
1:54 am95 °FClear.5 mph21%29.69 "Hg10 mi
12:54 am95 °FClear.No wind23%29.68 "Hg10 mi
11:54 pm
Tue, Jul 7
94 °FClear.3 mph25%29.67 "Hg10 mi
Weather by CustomWeather, © 2020

See weather overview